Weather in Ushtobe

Kazakhstan     45°15′18″N   77°59′06″E
temp.,
°C
wind,
m/s
gust,
m/s
humid.,
%
clouds,
%
prec.,
mm/h
press.,
hPa
HPBL,
m
12 april, mon
mon1200:00+10ne715310 0.0 1020319
03:00+8ene713410 0.0 1020246
06:00+7ene610490 0.0 1021163
09:00+12ene79430 0.0 1020287
12:00+18ne67290 0.0 1020635
15:00+21ne76200 0.0 10181024
18:00+20ne811220 0.0 1019642
21:00+13ne510310 0.0 1020207
13 april, tue
tue1300:00+11ne47360 0.0 1020116
03:00+9ene45410 0.0 102071
06:00+8ne34460 0.0 102149
09:00+13ne33370 0.0 1022255
12:00+18nne43280 0.0 1022751
15:00+20ne55220 0.0 10211267
18:00+19ne710220 0.0 10211263
21:00+14ne816290 0.0 1023451
14 april, wed
wed1400:00+11ne1219340 0.0 1025579
03:00+8ne1017650 0.0 1025515
06:00+5ne816550 0.0 1025410
09:00+9ne8124531 0.0 1025500
12:00+16ne9123256 0.0 1022773
15:00+20ne10111911 0.0 10201139
18:00+19ne9121961 0.0 1019860
21:00+13ne615295 0.0 1019348
15 april, thu
thu1500:00+11ne7163441 0.0 1019361
03:00+9ne6144284 0.0 1018265
06:00+7ene6134786 0.0 1018238
09:00+12ene8123566 0.0 1017355
12:00+19ne89223 0.0 1016703
15:00+22ne88161 0.0 10141209
18:00+21ne710200 0.0 1013943
21:00+16ene714250 0.0 1014275
16 april, fri
fri1600:00+12ene510331 0.0 1013143
03:00+11ene5837100 0.0 1012108
06:00+10ene4640100 0.0 101264
09:00+17e233197 0.0 1011221
12:00+23w3324100 0.0 1010791
15:00+25wsw5621100 0.0 10101390
18:00+22wsw582696 0.0 1011300
21:00+17ssw44337 0.0 101348